Location: Lake Arresoe
(56.0000°N, 12.5000°E)
Time: 11:28:46
(UTC+02:00)

Resurs 1-4 Rocket - Pass Details

Date: 21 August 2020
Orbit: 799 x 815 km, 98.6° (Epoch: 23 September)

Event Time Altitude Azimuth Distance (km) Brightness Sun altitude
Rises 02:42:26 0° 18° (NNE) 3,329 6.9 -19.5°
Reaches altitude 10° 02:44:50 10° 22° (NNE) 2,392 5.8 -19.3°
Maximum altitude 02:50:03 59° 102° (ESE) 922 2.4 -19.0°
Enters shadow 02:52:40 29° 171° (S) 1,442 3.0 -18.9°
